Location: Thiviers
(45.4167°N, 0.9167°E)
Time: 01:29:35
(UTC+02:00)

ISS - Visible Passes

Search period start: 20 July 2018 00:00
Search period end: 30 July 2018 00:00
Orbit: 402 x 408 km, 51.6° (Epoch: 20 July)

Date Brightness Start Highest point End Pass type
(mag) Time Alt. Az. Time Alt. Az. Time Alt. Az.
20 Jul -2.9 00:37:01 10° W 00:40:12 49° NNW 00:43:25 10° NE visible
20 Jul -1.6 02:14:20 10° WNW 02:17:11 26° N 02:20:03 10° ENE visible
20 Jul -2.4 03:51:04 10° NW 03:54:14 40° NNE 03:57:22 10° E visible
20 Jul -3.5 05:27:37 10° WNW 05:30:45 42° SW 05:33:53 10° SE visible
20 Jul -2.3 22:09:37 10° S 22:11:53 18° SE 22:14:11 10° E visible
20 Jul -3.7 23:44:47 10° WSW 23:48:03 75° NNW 23:51:20 10° ENE visible
21 Jul -1.7 01:22:00 10° WNW 01:24:54 28° N 01:27:49 10° NE visible
21 Jul -1.9 02:58:59 10° NW 03:02:00 32° NNE 03:05:00 10° ENE visible
21 Jul -4.0 04:35:26 10° WNW 04:38:43 75° SSW 04:42:00 10° SE visible
21 Jul -3.9 22:52:43 10° SW 22:55:57 66° SSE 22:59:13 10° ENE visible
22 Jul -2.0 00:29:36 10° W 00:32:38 33° NNW 00:35:40 10° NE visible
22 Jul -1.7 02:06:49 10° NW 02:09:42 28° N 02:12:37 10° ENE visible
22 Jul -3.5 03:43:18 10° WNW 03:46:36 68° NNE 03:49:52 10° ESE visible
22 Jul -2.5 05:20:19 10° W 05:22:49 20° SW 05:25:17 10° S visible
22 Jul -2.6 23:37:14 10° W 23:40:23 43° NNW 23:43:33 10° NE visible
23 Jul -1.6 01:14:33 10° WNW 01:17:24 26° N 01:20:15 10° ENE visible
23 Jul -2.2 02:51:12 10° NW 02:53:20 32° NNW 02:53:20 32° NNW visible
23 Jul -3.3 22:44:56 10° WSW 22:48:10 63° NNW 22:51:27 10° ENE visible
24 Jul -1.6 00:22:12 10° WNW 00:25:05 27° N 00:27:58 10° NE visible
24 Jul -2.0 01:59:06 10° NW 02:01:43 33° N 02:01:43 33° N visible
24 Jul -1.9 23:29:47 10° WNW 23:32:46 31° NNW 23:35:45 10° NE visible
25 Jul -1.8 01:06:55 10° NW 01:09:51 29° N 01:10:45 25° NE visible
25 Jul -2.3 22:37:22 10° W 22:40:27 38° NNW 22:43:34 10° NE visible
26 Jul -1.7 00:14:39 10° WNW 00:17:30 26° N 00:19:57 12° ENE visible
26 Jul -1.5 01:51:15 10° NW 01:52:35 22° NW 01:52:35 22° NW visible
26 Jul -1.7 23:22:17 10° WNW 23:25:09 26° N 23:28:00 10° ENE visible
27 Jul -2.3 00:59:05 10° NW 01:01:54 36° N 01:01:54 36° N visible
27 Jul -1.8 22:29:51 10° WNW 22:32:46 29° N 22:35:43 10° NE visible
28 Jul -2.0 00:06:54 10° NW 00:09:52 30° N 00:11:16 21° NE visible
28 Jul -1.0 01:43:19 10° WNW 01:43:54 14° WNW 01:43:54 14° WNW visible
28 Jul -1.8 23:14:37 10° NW 23:17:29 27° N 23:20:21 10° ENE visible
29 Jul -2.3 00:51:08 10° WNW 00:53:17 36° NW 00:53:17 36° NW visible
29 Jul -1.7 22:22:15 10° WNW 22:25:05 26° N 22:27:56 10° ENE visible
